LUME 1

Last updated on Tue Feb 13 2024 00:03:33 GMT+0000 (Greenwich Mean Time)

1 43908U 18111AJ 24043.62486058 .05951207 23920-5 11054-2 0 9991 2 43908 97.0797 293.7897 0002761 175.9252 184.2067 16.32294525286965
UTC large
Height (km)
Speed (km/s)
/
Latitude / Longitude
Inclination (degrees)
Orbital Period (minutes)
Azimuth
Elevation
Range (km)
Doppler Factor

Next 0 passes for location: London (51.5072 / 0.1276)

Sorry there are no passes over London.